Regional Weather Roundup
Issued by NWS

Home | Current Version | Previous Version | Graphics & Text | Print | Product List | Glossary On
Versions: 1 2 3 4 5 6 7 8 9 10 11 12 13 14 15 16 17 18 19 20 21 22 23 24 25 26 27 28 29 30 31 32 33 34 35 36 37 38 39 40 41 42 43 44 45 46 47 48 49 50
000
ASUS43 KLOT 272310
RWRIL

ILLINOIS REGIONAL WEATHER ROUNDUP
NATIONAL WEATHER SERVICE CHICAGO/ROMEOVILLE IL
500 PM CST TUE JAN 27 2015

NOTE: "FAIR" INDICATES FEW OR NO CLOUDS BELOW 12,000 FEET WITH NO
SIGNIFICANT WEATHER AND/OR OBSTRUCTIONS TO VISIBILITY.

* THESE STATIONS ARE NOT UNDER NWS QUALITY CONTROL. THEY ALSO MAY NOT
  REPORT WEATHER SUCH AS PRECIPITATION OR FOG.

ILZ001-002-007-009-015-016-024-280000-
NORTHWEST ILLINOIS

CITY           SKY/WX    TMP DP  RH WIND       PRES   REMARKS
MOLINE         CLOUDY    28  22  78 E8        30.24R WCI  20
STERLING*      CLOUDY    30  23  74 CALM      30.23S
SAVANNA*       CLOUDY    29  23  78 CALM      30.24S
$$

ILZ003-004-008-010-011-017-018-280000-
NORTH CENTRAL ILLINOIS

CITY           SKY/WX    TMP DP  RH WIND       PRES   REMARKS
ROCKFORD       MOCLDY    30  22  72 CALM      30.24R
FREEPORT*      CLOUDY    29  25  85 CALM      30.24R
ROCHELLE*      CLOUDY    29  22  76 CALM      30.23S
DE KALB*       MOCLDY    27  20  75 CALM      30.21S
PERU*          CLOUDY    31  27  83 N3        30.24R
$$

ILZ005-006-012>014-019>023-280000-
NORTHEAST ILLINOIS

CITY           SKY/WX    TMP DP  RH WIND       PRES   REMARKS
CHICAGO-OHARE  PTCLDY    27  16  63 NE7       30.22R WCI  19
CHICAGO-MIDWAY PTCLDY    29  17  61 N8        30.23R WCI  21
AURORA         CLOUDY    30  22  72 NW6       30.23R WCI  24
LANSING*       CLEAR     28  17  65 N8        30.23R WCI  19
JOLIET*        PTCLDY    30  19  61 N3        30.23R
WAUKEGAN       PTCLDY    25  17  72 N6        30.23R WCI  18
DUPAGE AIRPORT PTCLDY    29  18  63 NE5       30.22R WCI  24
KANKAKEE*      CLEAR     28  20  72 NE3       30.23R
WHEELING       CLEAR     27  14  58 NE7       30.25R WCI  19
MORRIS*        CLEAR     29  25  82 NW3       30.23R
ROMEOVILLE*    CLEAR     29  19  68 NE7       30.23R WCI  22
NORTHERLY ISL    N/A     27  16  63 MISG        N/A
$$

LMZ740>746-280000-
SOUTHERN LAKE MICHIGAN

STATION/POSITION SKY/WX   TEMP    WIND        PRES    VSBY  WAVE
                          AIR SEA DIR/SP/G                  HT/PER
                          (F)     (DEG/KT/KT) (MB)    (MI)  (FT/S)
WAUKEGAN HARBOR            27      10/ 10/ 14   N/A
HARRISON CRIB              27     360/ 10/ 12   N/A
BURNHAM HARBOR             27     350/  9/ 11   N/A
CALUMET HARBOR             27     350/  6/ 11   N/A
MICHIGAN CITY              26     360/ 11/ 13   N/A
$$

ILZ025>027-034>036-040-047-049-050-058-095>099-280000-
WEST-CENTRAL ILLINOIS

CITY           SKY/WX    TMP DP  RH WIND       PRES   REMARKS
QUINCY         CLEAR     34  28  79 NE9       30.19S WCI  27
GALESBURG*     CLOUDY    27  24  89 N3        30.23S
MACOMB*        CLOUDY    30  27  90 E6        30.25S WCI  24
JACKSONVILLE*  CLOUDY    33  28  83 NE8       30.23R WCI  26
PITTSFIELD*    MOCLDY    35  29  80 NE9       30.21S WCI  28
$$

ILZ028>032-037-038-041>044-048-051>054-059>061-280000-
CENTRAL ILLINOIS

CITY           SKY/WX    TMP DP  RH WIND       PRES   REMARKS
PONTIAC        CLOUDY    31  29  92 CALM      30.24R FOG
BLOOMINGTON    CLOUDY    31  26  81 NW3       30.23R
DECATUR        CLOUDY    32  27  81 NE6       30.22R WCI  26
PEORIA         CLOUDY    32  25  75 NE3       30.24R
LACON*         CLOUDY    30  24  78 CALM      30.24R
LINCOLN*       CLOUDY    33  28  80 CALM      30.24R
SPRINGFIELD    CLOUDY    32  26  78 N3        30.23R
TAYLORVILLE    CLOUDY    32  28  86 N6        30.22S WCI  26
$$

ILZ033-039-045-046-055>057-062-063-280000-
EAST-CENTRAL ILLINOIS

CITY           SKY/WX    TMP DP  RH WIND       PRES   REMARKS
CHAMPAIGN      MOCLDY    30  24  78 N8        30.21R WCI  22
DANVILLE*      CLEAR     28  22  78 N7        30.18S WCI  20
RANTOUL*       MOCLDY    31  25  78 N7        30.21R WCI  24
MATTOON        CLOUDY    31  24  75 N9        30.20R WCI  23
PARIS*         PTCLDY    29  23  77 CALM      30.21R
$$

ILZ079-100>102-280000-
SOUTHWEST ILLINOIS

CITY           SKY/WX    TMP DP  RH WIND       PRES   REMARKS
ALTON          PTCLDY    36  28  75 N7        30.22R WCI  30
BELLEVILLE     CLOUDY    38  32  80 NE7       30.21R WCI  32
CAHOKIA*       CLOUDY    44  31  60 N8        30.20R
SPARTA*        CLOUDY    40  30  68 N6        30.21R
$$

ILZ064>066-069>071-074>076-080>082-084>086-088>090-092>094-280000-
SOUTH-CENTRAL ILLINOIS

CITY           SKY/WX    TMP DP  RH WIND       PRES   REMARKS
CARBONDALE     CLOUDY    41  29  62 N9        30.20R
CAIRO*         CLEAR     45  32  60 N9        30.19R
EFFINGHAM*     CLOUDY    33  26  74 NW7       30.23R WCI  27
MARION         CLOUDY    41  30  65 N9        30.20R
MT. VERNON     CLOUDY    37  27  65 N6        30.22R WCI  33
CENTRALIA*     MOCLDY    35  28  75 N7        30.22R WCI  30
SALEM*         CLOUDY    38  30  75 N9        30.22R WCI  31
METROPOLIS*    CLOUDY    42  31  64 N8        30.18R
$$

ILZ067-068-072-073-078-083-087-091-280000-
SOUTHEAST ILLINOIS

CITY           SKY/WX    TMP DP  RH WIND       PRES   REMARKS
LAWRENCEVILLE  CLOUDY    33  29  85 N8        30.22R WCI  26
FLORA*         CLOUDY    34  30  85 N7        30.22R WCI  28
FAIRFIELD*     CLOUDY    36  30  80 N6        30.21R WCI  31
HARRISBURG*    CLOUDY    38  30  74 N7        30.22R WCI  32
ROBINSON*      CLOUDY    32  29  88 N7        30.22R WCI  26
CARMI*         CLOUDY    37  32  84 N7        30.20R WCI  31
$$

ABBREVIATIONS USED IN REMARKS
   TC - TEMPERATURE IN CELSIUS
  WCI - WIND CHILL INDEX
   HX - HEAT INDEX
  VSB - VISIBILITY
$$




USA.gov is the U.S. government's official web portal to all federal, state and local government web resources and services.